sat.trackr.live / text

‹ back to catalog

STARLINK-32210

NORAD 60594 · 2024-150M

PAYLOAD ACTIVE UNKNOWN

§ Identity

Operator
Country
US
Launch date
2024-08-20
Launch site
AFETR
Launch vehicle
Mass (kg)
RCS (m²)

Purposes: comms

External: N2YO · Heavens-Above · Gunter

§ Orbital elements

Epoch: 2026-09-21T20:32:39.111072Z

Period
93.85 min
Inclination
53.1589°
Eccentricity
0.0001194
Mean motion
15.34389836 rev/d
Perigee alt
461.9 km
Apogee alt
463.6 km
Semi-major
6,840.9 km
B*
7.3328e-6
RAAN
111.7131°
Arg perigee
86.7123°
Mean anomaly
273.4016°
Rev number
11,813

§ Raw data

STARLINK-322101 60594U 24150M   26264.85600823 -.00000128  00000+0  73328-5 0  99972 60594  53.1589 111.7131 0001194  86.7123 273.4016 15.34389836118131

JSON: /api/v1/satellites/60594 · /tle

For live sub-satellite position, see the globe view (requires WebGL).

§ Visibility from observer

Set your observer location to see the next 7 days of passes ≥ 10°. The values pass through the URL so the page stays shareable.

No JS? Fill the form by hand. The geolocation button needs JavaScript.